Location: Newark
(58.9986°N, 38.5006°E)
Time: 08:05:52
(UTC+00:00)

Explorer 7 - Pass Details

Date: 24 April 2021
Orbit: 484 x 677 km, 50.3° (Epoch: 11 May)

Event Time Altitude Azimuth Distance (km) Brightness Sun altitude
Rises 20:56:49 0° 265° (W) 2,751 10.4 -17.6°
Reaches altitude 10° 20:59:51 10° 242° (WSW) 1,897 9.3 -17.7°
Enters shadow 21:00:02 11° 240° (WSW) 1,861 9.3 -17.7°
